TimeEST,TemperatureF,Dew PointF,Humidity,Sea Level PressureIn,VisibilityMPH,Wind Direction,Wind SpeedMPH,Gust SpeedMPH,PrecipitationIn,Events,Conditions,WindDirDegrees,DateUTC
12:54 AM,28.9,23.0,78,30.38,10.0,Calm,Calm,-,N/A,,Clear,0,2013-01-09 05:54:00
1:54 AM,28.9,23.0,78,30.39,10.0,Calm,Calm,-,N/A,,Clear,0,2013-01-09 06:54:00
2:54 AM,28.0,23.0,81,30.38,10.0,Calm,Calm,-,N/A,,Clear,0,2013-01-09 07:54:00
3:54 AM,28.0,23.0,81,30.38,9.0,Calm,Calm,-,N/A,,Clear,0,2013-01-09 08:54:00
4:54 AM,26.1,21.0,81,30.38,8.0,Calm,Calm,-,N/A,,Clear,0,2013-01-09 09:54:00
5:54 AM,27.0,21.9,81,30.39,9.0,SSW,3.5,-,N/A,,Clear,200,2013-01-09 10:54:00
6:54 AM,26.6,21.2,80,30.40,7.0,Calm,Calm,-,N/A,,Clear,0,2013-01-09 11:54:00
7:54 AM,26.1,21.9,84,30.41,5.0,Calm,Calm,-,N/A,,Clear,0,2013-01-09 12:54:00
8:54 AM,28.0,24.1,85,30.40,6.0,Calm,Calm,-,N/A,,Clear,0,2013-01-09 13:54:00
9:54 AM,30.9,25.0,79,30.38,6.0,Calm,Calm,-,N/A,,Haze,0,2013-01-09 14:54:00
10:54 AM,35.6,24.8,65,30.34,7.0,SW,3.5,-,N/A,,Clear,230,2013-01-09 15:54:00
11:54 AM,39.0,23.0,53,30.28,10.0,SSW,4.6,-,N/A,,Clear,200,2013-01-09 16:54:00
12:54 PM,41.0,24.1,51,30.20,10.0,Calm,Calm,-,N/A,,Clear,0,2013-01-09 17:54:00
1:33 PM,42.8,24.8,49,30.21,10.0,SW,8.1,-,N/A,,Clear,220,2013-01-09 18:33:00
1:54 PM,42.1,25.0,51,30.20,10.0,SSW,6.9,-,N/A,,Clear,200,2013-01-09 18:54:00
2:54 PM,43.0,25.0,49,30.15,10.0,SSW,3.5,-,N/A,,Scattered Clouds,200,2013-01-09 19:54:00
3:54 PM,43.0,26.1,51,30.10,10.0,South,4.6,-,N/A,,Overcast,170,2013-01-09 20:54:00
4:54 PM,43.0,27.0,53,30.04,10.0,South,5.8,-,0.00,,Overcast,180,2013-01-09 21:54:00
5:54 PM,43.0,28.9,58,30.01,10.0,SSW,6.9,-,N/A,,Overcast,210,2013-01-09 22:54:00
6:54 PM,43.0,30.9,62,30.01,10.0,SW,11.5,25.3,N/A,,Clear,220,2013-01-09 23:54:00
7:54 PM,42.1,32.0,67,30.00,10.0,SW,9.2,-,N/A,,Clear,230,2013-01-10 00:54:00
8:54 PM,42.8,32.0,66,29.99,10.0,WSW,10.4,-,N/A,,Clear,240,2013-01-10 01:54:00
9:54 PM,42.1,30.9,65,30.01,10.0,WSW,11.5,-,N/A,,Clear,240,2013-01-10 02:54:00
10:54 PM,44.1,28.9,55,30.01,10.0,West,23.0,33.4,N/A,,Clear,260,2013-01-10 03:54:00
11:54 PM,45.0,25.0,46,30.01,10.0,WSW,12.7,26.5,N/A,,Overcast,250,2013-01-10 04:54:00